Starlink 11245

operational
NORAD ID: 60925 Int'l Des: 2024-155 Owner: SPXS Country: US Constellation: starlink
LEOCIRCULAR

About Starlink 11245

Description loading...

Live Position

Loading 3D Globe...

Upcoming Passes

Altitude History

Altitude vs Time

uPlot chart will show altitude changes over time

Two-Line Element Set

1 60925U 24155B 25305.10209191 -.00001403 00000-0 -67128-5 0 9996
2 60925 53.1596 255.3379 0001586 75.2060 284.9134 15.69722731 68207
Epoch: Nov 1, 2025 • Age: 34 hours

Current Status

Altitude 363.9 km
Velocity 7.70 km/s
Sub-Earth Point 47.01°N, 144.98°E
Launch Date Aug 31, 2024
Age 1.1 years
Type internet

Technical Details

Classification Payload
Mass 960.00 kg
Dry Mass 910.00 kg
Total Mass 960.00 kg
Length 0.30 m
Diameter 4.10 m
Span 29.00 m
Shape Box + pan
Manufacturer SPXS
Bus Type Starlink V2MD
Phase Status In Orbit
Owner/State SPXS/US

Large Constellations

Loading constellations...